EHI
9 11 12 15 22 30 36 41 42 37 32 26 16 7 5 3 1 0 0 0 0 0 0 0 0 0 0 0 0 0 0 0 0 0 0 0 0 0 0 0 0 0 0
8 9 10 13 18 24 29 33 35 35 32 27 18 9 4 2 0 0 0 0 0 0 0 0 0 0 0 0 0 0 0 0 0 0 0 0 0 0 0 0 0 0 0
7 8 9 12 14 18 20 21 24 26 27 25 19 10 4 1 0 0 0 0 0 0 0 0 0 0 0 0 0 0 0 0 0 0 0 0 0 0 0 0 0 0 0
6 7 9 12 13 15 15 15 16 17 19 20 17 11 5 2 1 0 0 0 0 0 0 0 0 0 0 0 0 0 0 0 0 0 0 0 0 0 0 0 0 0 0
4 4 7 10 13 13 14 14 15 15 15 15 13 9 5 2 1 0 0 0 0 0 0 0 0 0 0 0 0 0 0 0 0 0 0 0 0 0 0 0 0 0 0
2 2 4 7 10 12 14 16 17 16 13 10 7 6 3 1 0 1 1 1 0 0 0 0 0 0 0 0 0 0 0 0 0 0 0 0 0 0 0 0 0 0 0
2 2 3 5 7 9 11 13 14 13 9 5 4 4 3 1 0 1 2 1 0 0 0 0 0 0 0 0 0 0 0 0 0 0 0 0 0 0 0 0 0 0 0
3 3 3 4 4 5 6 7 9 7 4 3 3 3 2 1 0 1 1 0 0 0 0 0 0 0 0 0 0 0 0 0 0 0 0 0 0 0 0 0 0 0 0
3 3 3 3 3 2 2 3 3 2 1 1 1 1 1 0 0 0 0 0 0 0 0 0 0 0 0 0 0 0 0 0 0 0 0 0 0 0 0 0 0 0 0
2 3 3 3 3 2 1 1 0 0 0 0 0 0 0 0 0 0 0 0 0 0 0 0 0 0 0 0 0 0 0 0 0 0 0 0 0 0 0 0 0 0 0
2 2 1 1 2 1 1 0 0 0 0 0 0 0 0 0 0 0 0 0 0 0 0 0 0 0 0 0 0 0 0 0 0 0 0 0 0 0 0 0 0 0 0
1 1 0 0 0 0 0 0 0 0 0 0 0 0 0 0 0 0 0 0 0 0 0 0 0 0 0 0 0 0 0 0 0 0 0 0 0 0 0 0 0 0 0
0 0 0 0 0 0 0 0 0 0 0 0 0 0 0 0 0 0 0 0 0 0 0 0 0 0 0 0 0 0 0 0 0 0 0 0 0 0 0 0 0 0 0
0 0 0 0 0 0 0 0 0 0 0 0 0 0 0 0 0 0 0 0 0 0 0 0 0 0 0 0 0 0 0 0 0 0 0 0 0 0 0 0 0 0 0
0 0 0 0 0 0 0 0 0 0 0 0 0 0 0 0 0 0 0 0 0 0 0 0 0 0 0 0 0 0 0 0 0 0 0 0 0 0 0 0 0 0 0
0 0 0 0 0 0 0 0 0 0 0 0 0 0 0 0 0 0 0 0 0 0 0 0 0 0 0 0 0 0 0 0 0 0 0 0 0 0 0 0 0 0 0
0 0 0 0 0 0 0 0 0 0 0 0 0 0 0 0 0 0 0 0 0 0 0 0 0 0 0 0 0 0 0 0 0 0 0 0 0 0 0 0 0 0 0
0 0 0 0 0 0 0 0 0 0 0 0 0 0 0 0 0 0 0 0 0 0 0 0 0 0 0 0 0 0 0 0 0 0 0 0 0 0 0 0 0 0 0
0 0 0 0 0 0 0 0 0 0 0 0 0 0 0 0 0 0 0 0 0 0 0 0 0 0 0 0 0 0 0 0 0 0 0 0 0 0 0 0 0 0 0
0 0 0 0 0 0 0 0 0 0 0 0 0 0 0 0 0 0 0 0 0 0 0 0 0 0 0 0 0 0 0 0 0 0 0 0 0 0 0 0 0 0 0
0 0 0 0 0 0 0 0 0 0 0 0 0 0 0 0 0 0 0 0 0 0 0 0 0 0 0 0 0 0 0 0 0 0 0 0 0 0 0 0 0 0 0
0 0 0 0 0 0 0 0 0 0 0 0 0 0 0 0 0 0 0 0 0 0 0 0 0 0 0 0 0 0 0 0 0 0 0 0 0 0 0 0 0 0 0
0 0 0 0 0 0 0 0 0 0 0 0 0 0 0 0 0 0 0 0 0 0 0 0 0 0 0 0 0 0 0 0 0 0 0 0 0 0 0 0 0 0 0
0 0 0 0 0 0 0 0 0 0 0 0 0 0 0 0 0 0 0 0 0 0 0 0 0 0 0 0 0 0 0 0 0 0 0 0 0 0 0 0 0 0 0
0 0 0 0 0 0 0 0 0 0 0 0 0 0 0 0 0 0 0 0 0 0 0 0 0 0 0 0 0 0 0 0 0 0 0 0 0 0 0 0 0 0 0
0 0 0 0 0 0 0 0 0 0 0 0 0 0 0 0 0 0 0 0 0 0 0 0 0 0 0 0 0 0 0 0 0 0 0 0 0 0 0 0 0 0 0
Wind_Speed
4 4 3 1 3 5 7 7 7 5 5 4 4 4 3 3 2 2 3 3 3 4 4 3 2 2 2 2 3 2 1 1 1 0 1 2 1 1 2 2 2 2 2
6 7 6 5 3 4 4 5 5 6 5 4 3 2 3 2 2 2 2 2 3 3 3 4 3 2 2 1 1 1 1 1 1 1 1 2 2 1 2 2 2 2 2
6 7 7 6 6 5 4 4 4 4 4 5 3 3 3 3 2 3 3 5 5 5 5 4 3 3 2 1 1 0 1 1 1 1 1 2 2 1 2 3 3 3 3
8 8 8 8 7 6 5 5 5 4 3 4 4 5 5 4 3 3 5 7 8 8 7 6 6 5 4 4 3 3 1 0 0 0 0 1 0 1 1 1 3 4 5
9 9 9 8 8 8 7 7 7 6 4 5 6 6 5 5 5 6 9 8 8 10 9 9 8 7 6 6 6 6 5 3 2 2 1 1 1 1 1 1 2 3 4
10 10 10 10 10 10 9 8 8 8 7 9 9 9 9 8 8 8 8 7 7 8 10 10 9 9 8 8 7 7 8 6 7 5 5 4 3 2 1 1 1 1 3
9 10 11 11 11 11 10 10 10 10 10 12 12 11 11 10 10 8 8 8 7 7 9 9 9 9 9 9 8 9 9 9 9 8 6 6 5 3 2 2 1 1 2
9 10 11 10 10 11 11 11 12 12 11 13 13 12 12 9 8 10 9 9 8 8 8 10 11 10 10 10 9 9 9 9 9 10 8 6 6 5 4 3 1 1 2
9 10 11 11 11 12 12 12 13 13 13 13 13 13 12 12 13 12 11 9 9 9 10 11 11 11 11 10 9 8 8 8 9 8 8 7 6 5 5 4 3 2 2
9 10 10 10 10 11 11 12 13 14 14 14 13 12 13 13 13 12 13 12 11 10 11 11 11 11 10 9 9 8 8 9 8 6 8 8 6 5 5 5 4 4 2
9 9 9 10 10 11 11 12 13 14 14 14 14 14 13 13 13 13 12 11 10 11 11 10 10 10 10 9 9 9 8 9 8 7 8 8 6 5 5 5 5 5 3
9 9 9 9 10 11 11 11 12 13 13 13 13 13 12 12 13 12 11 10 11 10 10 10 10 10 9 9 9 9 8 8 8 7 7 7 6 7 5 5 6 4 4
9 9 9 9 9 10 10 11 11 12 11 11 13 13 12 12 12 11 10 10 10 10 10 10 10 9 8 8 7 7 7 7 6 6 6 5 6 6 4 5 4 3 3
9 9 9 8 9 9 9 10 10 10 10 11 11 12 10 10 10 9 9 9 9 9 8 8 8 8 7 7 7 7 7 6 6 5 5 4 4 4 4 4 4 3 3
9 9 9 8 8 9 9 9 9 8 9 10 11 10 8 8 8 8 8 8 8 8 7 8 8 7 7 6 6 6 6 6 6 6 5 5 6 7 4 3 2 2 2
10 10 9 9 8 8 8 8 8 7 7 9 9 8 7 7 7 7 7 7 7 6 7 8 8 8 6 8 9 7 5 5 6 5 5 4 6 8 8 8 5 3 1
11 10 9 8 7 7 7 7 7 7 7 7 7 6 6 6 5 6 6 6 5 5 6 6 6 6 7 10 9 9 5 5 5 4 4 4 5 6 5 7 7 6 4
11 9 9 8 6 6 6 6 7 7 7 6 6 5 5 5 5 5 5 4 3 4 4 4 5 5 7 9 9 8 5 5 5 4 4 4 5 6 6 6 6 6 5
10 8 8 7 7 7 6 7 7 6 6 5 4 4 4 5 5 5 4 3 3 3 3 3 4 5 6 9 8 6 4 4 5 5 4 5 5 8 8 5 6 7 5
9 9 8 7 7 6 6 7 6 5 5 4 4 3 4 4 4 3 3 2 3 3 4 5 5 5 5 8 9 6 3 4 5 5 5 6 7 9 7 3 4 6 6
10 9 8 7 6 6 6 7 6 4 3 3 4 4 3 3 3 3 3 3 4 5 5 5 4 4 5 6 8 8 3 3 4 4 5 6 11 10 8 3 2 5 6
10 9 8 7 5 6 7 6 4 3 3 4 4 4 3 3 3 4 4 4 4 5 4 3 3 3 4 5 7 8 6 4 3 3 4 6 10 8 7 5 5 5 4
9 7 8 7 5 5 6 6 3 3 4 4 4 3 4 4 3 4 4 4 3 3 2 2 2 3 3 4 7 8 8 7 3 3 6 7 8 7 6 7 8 5 4
8 7 8 7 5 4 4 4 3 3 4 4 3 3 3 4 4 4 3 3 2 2 2 2 2 2 3 4 5 5 5 6 5 4 6 7 8 7 6 6 6 4 3
6 6 7 6 5 4 4 3 3 4 4 3 3 3 3 3 4 4 3 2 1 1 1 1 0 1 3 4 7 5 4 4 3 3 4 5 5 6 6 5 5 5 5
6 6 6 5 5 4 3 3 3 4 4 3 2 2 2 2 3 3 2 3 2 2 1 2 2 2 3 6 6 6 6 7 5 4 4 4 4 5 5 6 6 5 6
Wind_Direction
32 35 37 87 131 136 142 149 152 152 151 163 171 177 191 176 163 166 158 166 167 164 167 173 156 158 173 184 175 171 184 213 164 152 299 299 295 310 312 313 318 318 314
30 35 39 45 80 118 127 132 148 146 151 168 178 163 141 135 133 106 89 91 110 124 140 135 130 132 132 129 151 163 170 197 174 177 216 292 306 332 354 355 350 340 352
40 35 40 45 55 65 82 109 117 125 143 151 136 113 111 110 113 91 75 56 63 72 81 94 98 90 96 91 56 3 200 217 198 183 191 226 253 327 13 25 20 13 11
47 46 44 42 45 53 67 77 79 87 106 132 138 144 148 146 130 110 89 65 58 60 64 71 75 72 65 59 42 38 27 83 226 98 345 246 227 233 309 23 36 33 24
47 48 46 43 40 41 52 63 68 60 60 88 113 111 102 107 105 99 88 75 65 60 60 62 65 65 61 56 50 50 53 48 46 36 10 4 12 336 255 304 27 38 29
49 48 45 44 42 41 47 57 65 59 60 68 75 89 100 103 104 97 93 83 72 62 58 62 63 63 62 61 60 62 63 63 64 56 48 41 31 11 360 11 33 32 25
53 51 46 43 43 42 47 55 65 62 62 69 70 76 86 94 95 96 90 85 75 65 58 64 64 63 62 64 64 64 61 61 65 62 58 52 42 18 13 41 28 46 35
57 58 53 49 46 46 48 55 62 63 65 71 72 72 75 79 79 79 82 80 77 72 67 69 70 67 66 66 65 65 63 62 63 61 59 56 43 35 34 34 33 55 45
62 60 58 55 52 51 50 55 66 67 64 69 74 73 76 79 80 79 78 79 79 79 72 71 71 67 65 65 67 66 63 62 61 59 57 54 43 38 36 39 39 66 63
69 64 60 59 57 57 56 58 64 69 68 68 71 74 73 77 79 80 77 75 73 74 73 69 68 67 64 63 67 65 60 63 57 56 56 50 40 39 36 39 40 44 77
81 72 67 61 61 60 59 61 64 68 69 71 74 75 73 75 77 76 75 75 74 71 71 70 70 67 63 62 66 64 60 62 56 51 54 50 43 42 34 37 41 39 48
90 84 76 70 66 65 65 66 67 70 70 73 76 76 75 75 76 75 73 73 73 70 70 69 68 66 63 60 62 64 60 59 55 49 52 46 46 43 35 38 39 36 33
101 92 83 76 73 71 71 70 69 72 74 78 81 79 76 76 76 75 72 71 71 69 66 66 66 63 61 60 59 62 60 57 53 49 50 42 44 40 32 34 33 27 32
109 101 92 85 79 76 75 75 73 74 79 81 82 80 77 77 76 74 71 68 70 69 66 65 64 61 59 57 56 57 56 52 47 46 45 40 42 37 23 24 21 21 25
112 107 104 96 90 86 82 79 78 77 81 84 82 79 77 76 75 73 69 67 66 67 64 64 57 51 51 48 54 52 53 47 42 37 32 33 43 40 28 16 6 11 13
119 114 110 107 103 100 97 90 85 82 84 85 84 82 80 77 74 74 73 70 66 62 61 59 58 52 47 48 58 63 54 48 43 33 20 21 29 20 17 12 6 354 330
129 125 120 115 111 108 107 103 99 92 87 85 84 82 81 77 73 74 72 68 66 65 64 61 62 55 41 47 54 57 59 49 40 30 16 10 8 6 357 353 358 354 337
130 126 122 117 113 108 106 104 100 95 90 85 82 78 78 76 70 68 65 63 68 71 69 63 61 55 39 40 47 50 51 46 32 20 8 356 347 351 349 345 346 341 333
123 121 122 120 117 113 111 104 97 95 94 89 83 80 83 81 73 67 59 55 66 68 68 67 61 54 31 32 40 42 32 26 11 2 358 351 342 337 347 350 342 337 333
119 120 117 115 115 114 112 106 104 101 101 100 94 84 81 81 75 68 59 51 68 74 79 70 58 54 39 29 34 35 29 17 357 347 349 352 342 334 338 335 331 331 328
123 121 119 119 122 124 115 110 109 112 114 106 94 79 74 80 81 71 59 70 81 79 75 70 51 41 29 21 24 27 30 8 348 347 344 337 336 338 343 334 291 287 302
123 122 122 120 121 125 120 117 121 123 107 99 88 75 64 69 87 86 74 72 84 83 73 62 37 15 7 9 5 11 15 8 351 336 330 325 334 349 3 6 346 332 329
126 124 125 121 119 126 127 130 145 129 111 99 89 77 71 67 74 86 86 73 70 80 74 61 28 350 348 353 358 1 4 8 4 325 326 341 358 9 14 14 13 12 12
126 126 124 124 128 137 137 145 145 129 119 112 99 87 85 74 65 68 76 84 84 85 79 60 20 348 344 355 356 353 356 3 7 356 353 6 18 27 18 11 13 17 11
122 127 131 136 144 145 141 140 134 129 122 118 107 97 95 99 86 72 65 80 78 175 136 132 327 350 347 331 333 338 344 343 345 356 17 22 17 16 11 4 3 6 10
127 129 132 138 145 145 150 152 146 137 133 126 115 112 114 110 108 100 67 44 57 66 113 189 218 269 281 311 341 8 23 28 41 57 41 26 18 12 4 357 353 359 2